| time (UTC) | temp F | wind direction | speed MPH | gust MPH | rain 1hr in | rain 24hr in | rain mn in | humidity % | barometer mb |
| 20260507033041 | 53 | 340 | 0.0 | 1.0 | 0.00 | 0.00 | 0.00 | 65 | 1018.8 |
| 20260507031540 | 53 | 340 | 0.0 | 0.0 | 0.00 | 0.00 | 0.00 | 64 | 1018.7 |
| 20260507030037 | 54 | 340 | 0.0 | 0.0 | 0.00 | 0.00 | 0.00 | 62 | 1018.5 |
| 20260507024536 | 55 | 340 | 0.0 | 0.0 | 0.00 | 0.00 | 0.00 | 61 | 1018.2 |
| 20260507023040 | 56 | 340 | 0.0 | 2.0 | 0.00 | 0.00 | 0.00 | 59 | 1018.1 |
| 20260507021536 | 57 | 340 | 0.0 | 1.0 | 0.00 | 0.00 | 0.00 | 57 | 1017.8 |
| 20260507020045 | 58 | 340 | 0.0 | 2.0 | 0.00 | 0.00 | 0.00 | 55 | 1017.7 |
| 20260507014543 | 59 | 332 | 0.0 | 2.0 | 0.00 | 0.00 | 0.00 | 54 | 1017.4 |
| 20260507013034 | 60 | 334 | 0.0 | 2.0 | 0.00 | 0.00 | 0.00 | 53 | 1017.2 |
| 20260507011534 | 60 | 70 | 1.0 | 5.0 | 0.00 | 0.00 | 0.00 | 52 | 1017.2 |
| 20260507010033 | 61 | 320 | 1.0 | 5.0 | 0.00 | 0.00 | 0.00 | 51 | 1017.1 |
| 20260507004538 | 61 | 17 | 1.0 | 5.0 | 0.00 | 0.00 | 0.00 | 51 | 1017.1 |
| 20260507003032 | 62 | 266 | 0.0 | 5.0 | 0.00 | 0.00 | 0.00 | 51 | 1016.9 |
| 20260507001531 | 62 | 5 | 0.0 | 4.0 | 0.00 | 0.00 | 0.00 | 51 | 1016.8 |
| 20260507000030 | 63 | 340 | 0.0 | 4.0 | 0.00 | 0.00 | 0.00 | 51 | 1016.7 |
| 20260506234536 | 62 | 5 | 0.0 | 6.0 | 0.00 | 0.00 | 0.00 | 55 | 1016.6 |
| 20260506233029 | 61 | 5 | 1.0 | 3.0 | 0.00 | 0.00 | 0.00 | 58 | 1016.3 |
| 20260506231538 | 61 | 308 | 0.0 | 3.0 | 0.00 | 0.00 | 0.00 | 61 | 1016.2 |
| 20260506230030 | 64 | 341 | 1.0 | 4.0 | 0.00 | 0.00 | 0.00 | 57 | 1016.2 |
| 20260506224528 | 67 | 43 | 0.0 | 5.0 | 0.00 | 0.00 | 0.00 | 46 | 1016.0 |
| 20260506223042 | 67 | 292 | 1.0 | 5.0 | 0.00 | 0.00 | 0.00 | 44 | 1015.8 |
| 20260506221525 | 66 | 5 | 0.0 | 3.0 | 0.00 | 0.00 | 0.00 | 49 | 1015.6 |
| 20260506220026 | 66 | 91 | 1.0 | 5.0 | 0.00 | 0.00 | 0.00 | 49 | 1015.7 |
| 20260506214523 | 67 | 127 | 0.0 | 6.0 | 0.00 | 0.00 | 0.00 | 47 | 1015.7 |
| 20260506213021 | 66 | 18 | 1.0 | 4.0 | 0.00 | 0.00 | 0.00 | 47 | 1015.8 |
| 20260506211519 | 64 | 63 | 0.0 | 5.0 | 0.00 | 0.00 | 0.00 | 51 | 1016.1 |
| 20260506210019 | 64 | 14 | 0.0 | 4.0 | 0.00 | 0.00 | 0.00 | 54 | 1016.2 |
| 20260506204519 | 64 | 5 | 0.0 | 4.0 | 0.00 | 0.00 | 0.00 | 53 | 1016.5 |
| 20260506203024 | 63 | 5 | 0.0 | 4.0 | 0.00 | 0.00 | 0.00 | 52 | 1016.5 |
| 20260506201529 | 64 | 65 | 1.0 | 5.0 | 0.00 | 0.00 | 0.00 | 51 | 1016.7 |
| 20260506200013 | 64 | 355 | 1.0 | 11.0 | 0.00 | 0.00 | 0.00 | 52 | 1016.8 |
| 20260506194511 | 63 | 355 | 0.0 | 5.0 | 0.00 | 0.00 | 0.00 | 53 | 1016.9 |
| 20260506193007 | 61 | 18 | 0.0 | 6.0 | 0.00 | 0.00 | 0.00 | 55 | 1017.0 |
| 20260506191507 | 61 | 355 | 1.0 | 5.0 | 0.00 | 0.00 | 0.00 | 55 | 1017.1 |
| 20260506190007 | 61 | 55 | 0.0 | 4.0 | 0.00 | 0.00 | 0.00 | 56 | 1017.3 |
| 20260506184506 | 61 | 319 | 1.0 | 3.0 | 0.00 | 0.00 | 0.00 | 55 | 1017.3 |
| 20260506183006 | 61 | 355 | 0.0 | 3.0 | 0.00 | 0.00 | 0.00 | 56 | 1017.6 |
| 20260506181508 | 61 | 5 | 0.0 | 4.0 | 0.00 | 0.00 | 0.00 | 55 | 1017.6 |
| 20260506180010 | 61 | 94 | 1.0 | 3.0 | 0.00 | 0.00 | 0.00 | 55 | 1017.8 |
| 20260506174508 | 61 | 100 | 2.0 | 6.0 | 0.00 | 0.00 | 0.00 | 56 | 1017.8 |
| 20260506173002 | 61 | 303 | 1.0 | 5.0 | 0.00 | 0.00 | 0.00 | 54 | 1018.0 |
| 20260506171559 | 60 | 61 | 2.0 | 4.0 | 0.00 | 0.00 | 0.00 | 55 | 1017.9 |
| 20260506170114 | 60 | 53 | 2.0 | 5.0 | 0.00 | 0.00 | 0.00 | 57 | 1018.0 |
| 20260506164556 | 59 | 54 | 1.0 | 5.0 | 0.00 | 0.00 | 0.00 | 59 | 1018.1 |
| 20260506163106 | 59 | 82 | 0.0 | 6.0 | 0.00 | 0.00 | 0.00 | 59 | 1018.2 |
| 20260506161551 | 58 | 19 | 1.0 | 8.0 | 0.00 | 0.00 | 0.00 | 59 | 1018.3 |
| 20260506160047 | 56 | 89 | 2.0 | 6.0 | 0.00 | 0.00 | 0.00 | 61 | 1017.9 |
| 20260506154544 | 55 | 96 | 1.0 | 5.0 | 0.00 | 0.00 | 0.00 | 63 | 1018.1 |
| 20260506153041 | 55 | 17 | 0.0 | 5.0 | 0.00 | 0.00 | 0.00 | 65 | 1017.9 |
| 20260506151542 | 54 | 5 | 2.0 | 5.0 | 0.00 | 0.00 | 0.00 | 66 | 1017.9 |
| 20260506150032 | 53 | 44 | 0.0 | 5.0 | 0.00 | 0.00 | 0.00 | 72 | 1017.9 |
| 20260506144531 | 51 | 318 | 1.0 | 8.0 | 0.00 | 0.00 | 0.00 | 75 | 1017.6 |
| 20260506143031 | 51 | 5 | 1.0 | 4.0 | 0.00 | 0.00 | 0.00 | 77 | 1017.4 |
| 20260506141523 | 50 | 333 | 2.0 | 6.0 | 0.00 | 0.00 | 0.00 | 76 | 1017.3 |
| 20260506140022 | 50 | 250 | 0.0 | 5.0 | 0.00 | 0.00 | 0.00 | 78 | 1017.4 |
| 20260506134520 | 49 | 314 | 1.0 | 9.0 | 0.00 | 0.00 | 0.00 | 79 | 1017.4 |
| 20260506133018 | 49 | 318 | 1.0 | 4.0 | 0.00 | 0.00 | 0.00 | 80 | 1017.6 |
| 20260506131524 | 49 | 306 | 1.0 | 6.0 | 0.00 | 0.00 | 0.00 | 80 | 1017.4 |
| 20260506130015 | 48 | 25 | 0.0 | 4.0 | 0.00 | 0.00 | 0.00 | 81 | 1017.2 |
| 20260506124510 | 48 | 22 | 1.0 | 5.0 | 0.00 | 0.00 | 0.00 | 82 | 1017.3 |
| 20260506123006 | 48 | 49 | 0.0 | 4.0 | 0.00 | 0.00 | 0.00 | 83 | 1016.7 |
| 20260506121504 | 48 | 88 | 0.0 | 5.0 | 0.00 | 0.00 | 0.00 | 83 | 1016.5 |
| 20260506120059 | 48 | 355 | 0.0 | 5.0 | 0.00 | 0.00 | 0.00 | 83 | 1016.2 |
| 20260506114557 | 48 | 323 | 1.0 | 8.0 | 0.00 | 0.00 | 0.00 | 82 | 1016.0 |
| 20260506113056 | 48 | 52 | 0.0 | 4.0 | 0.00 | 0.00 | 0.00 | 82 | 1015.9 |
| 20260506111554 | 48 | 66 | 0.0 | 3.0 | 0.00 | 0.00 | 0.00 | 81 | 1015.7 |
| 20260506110053 | 48 | 20 | 0.0 | 2.0 | 0.00 | 0.00 | 0.00 | 81 | 1015.4 |
| 20260506104551 | 48 | 38 | 0.0 | 4.0 | 0.00 | 0.00 | 0.00 | 80 | 1016.1 |
| 20260506103054 | 48 | 49 | 0.0 | 3.0 | 0.00 | 0.00 | 0.00 | 79 | 1016.5 |
| 20260506101547 | 48 | 52 | 0.0 | 3.0 | 0.00 | 0.00 | 0.00 | 79 | 1016.0 |
| 20260506100045 | 48 | 355 | 0.0 | 3.0 | 0.00 | 0.00 | 0.00 | 79 | 1016.0 |
| 20260506094542 | 48 | 5 | 0.0 | 2.0 | 0.00 | 0.00 | 0.00 | 79 | 1015.5 |
| 20260506093039 | 48 | 14 | 0.0 | 4.0 | 0.00 | 0.00 | 0.00 | 78 | 1015.1 |
| 20260506091538 | 48 | 22 | 0.0 | 3.0 | 0.00 | 0.00 | 0.00 | 77 | 1014.7 |
| 20260506090045 | 48 | 40 | 1.0 | 4.0 | 0.00 | 0.00 | 0.00 | 76 | 1014.5 |
| 20260506084539 | 48 | 42 | 1.0 | 3.0 | 0.00 | 0.00 | 0.00 | 76 | 1014.6 |
| 20260506083032 | 48 | 5 | 0.0 | 4.0 | 0.00 | 0.00 | 0.00 | 75 | 1014.2 |
| 20260506081536 | 48 | 29 | 0.0 | 4.0 | 0.00 | 0.00 | 0.00 | 75 | 1013.6 |
| 20260506073023 | 49 | 65 | 0.0 | 3.0 | 0.00 | 0.00 | 0.00 | 75 | 1013.1 |
| 20260506071521 | 49 | 317 | 0.0 | 3.0 | 0.00 | 0.00 | 0.00 | 74 | 1012.8 |
| 20260506061538 | 49 | 355 | 0.0 | 3.0 | 0.00 | 0.00 | 0.00 | 74 | 1012.9 |
| 20260506044508 | 49 | 109 | 0.0 | 3.0 | 0.00 | 0.00 | 0.00 | 72 | 1012.7 |
| 20260506043007 | 49 | 334 | 0.0 | 4.0 | 0.00 | 0.00 | 0.00 | 74 | 1012.8 |
| 20260506041503 | 49 | 23 | 0.0 | 3.0 | 0.00 | 0.00 | 0.00 | 75 | 1012.6 |
| 20260506040002 | 49 | 9 | 1.0 | 7.0 | 0.00 | 0.00 | 0.00 | 77 | 1012.6 |
| 20260506034502 | 49 | 312 | 1.0 | 5.0 | 0.00 | 0.00 | 0.00 | 79 | 1012.6 |